This is the latest recevied weather packets stored in our database for station/object KD4EG. If no packets are shown the sender has not sent any weather packets the latest 1 day(s).
| Time | Temp. | Humidity | Pressure | Rain* | Wind** | Luminosity | Snow |
|---|---|---|---|---|---|---|---|
| 1777998006 | 24.44° C | 39% | 1016.8 hPa | 0 mm | 1.34 m/s, 11° | 662 W/m² | - |
| 1777997703 | 23.89° C | 41% | 1016.9 hPa | 0 mm | 1.34 m/s, 223° | 683 W/m² | - |
| 1777997400 | 23.89° C | 40% | 1016.9 hPa | 0 mm | 2.68 m/s, 291° | 668 W/m² | - |
| 1777997098 | 23.89° C | 41% | 1016.9 hPa | 0 mm | 1.34 m/s, 301° | 640 W/m² | - |
| 1777996794 | 23.89° C | 40% | 1017 hPa | 0 mm | 3.13 m/s, 277° | 663 W/m² | - |
| 1777996491 | 23.89° C | 40% | 1017.2 hPa | 0 mm | 2.68 m/s, 105° | 683 W/m² | - |
| 1777996187 | 23.33° C | 40% | 1017.2 hPa | 0 mm | 2.24 m/s, 271° | 724 W/m² | - |
| 1777995884 | 23.33° C | 40% | 1017.2 hPa | 0 mm | 4.02 m/s, 173° | 633 W/m² | - |
| 1777995580 | 23.89° C | 41% | 1017.3 hPa | 0 mm | 2.68 m/s, 158° | 647 W/m² | - |
| 1777995278 | 23.33° C | 41% | 1017.2 hPa | 0 mm | 1.34 m/s, 331° | 660 W/m² | - |
| 1777994974 | 23.33° C | 43% | 1017.2 hPa | 0 mm | 1.79 m/s, 308° | 719 W/m² | - |
| 1777994671 | 22.78° C | 43% | 1017.4 hPa | 0 mm | 1.79 m/s, 344° | 715 W/m² | - |
| 1777994366 | 23.33° C | 43% | 1017.5 hPa | 0 mm | 0.45 m/s, 320° | 727 W/m² | - |
| 1777994062 | 22.78° C | 45% | 1017.6 hPa | 0 mm | 1.79 m/s, 168° | 719 W/m² | - |
| 1777993760 | 22.78° C | 46% | 1017.4 hPa | 0 mm | 3.13 m/s, 344° | 637 W/m² | - |
| 1777993456 | 22.78° C | 47% | 1017.6 hPa | 0 mm | 0.89 m/s, 202° | 616 W/m² | - |
| 1777993151 | 22.78° C | 46% | 1017.4 hPa | 0 mm | 0.89 m/s, 273° | 637 W/m² | - |
| 1777992849 | 22.78° C | 47% | 1017.4 hPa | 0 mm | 0.89 m/s, 143° | 647 W/m² | - |
| 1777992547 | 21.67° C | 48% | 1017.3 hPa | 0 mm | 1.79 m/s, 336° | 706 W/m² | - |
| 1777992244 | 22.22° C | 48% | 1017.2 hPa | 0 mm | 0.45 m/s, 242° | 741 W/m² | - |
| 1777991941 | 21.67° C | 48% | 1017.2 hPa | 0 mm | 1.34 m/s, 355° | 698 W/m² | - |
| 1777991639 | 21.67° C | 49% | 1017.2 hPa | 0 mm | 0.89 m/s, 301° | 642 W/m² | - |
| 1777991336 | 21.11° C | 50% | 1017.2 hPa | 0 mm | 2.68 m/s, 149° | 643 W/m² | - |
| 1777991033 | 21.67° C | 49% | 1017.2 hPa | 0 mm | 1.34 m/s, 301° | 660 W/m² | - |
| 1777990730 | 21.67° C | 51% | 1017.2 hPa | 0 mm | 0.45 m/s, 273° | 627 W/m² | - |
* Rain latest hour (hover to see other rain measurements)
** Current wind speed in m/s (hover to see current wind gust speed)